Weather History for Laramie, WY

Change the Weather History Date:

Monday, January 23, 2012

  Actual Average Record
Temperature  
Mean Temperature 30 °F 22 °F  
Max Temperature 39 °F 33 °F 56 °F (2005)
Min Temperature 20 °F 10 °F -22 °F (1963)
Degree Days  
Heating Degree Days 35 43  
Month to date heating degree days 882 990  
Since 1 July heating degree days 4545 4663  
Cooling Degree Days 0 0  
Month to date cooling degree days 0 0  
Year to date cooling degree days 0 0  
Moisture  
Dew Point 10 °F    
Average Humidity 47    
Maximum Humidity 62    
Minimum Humidity 32    
Precipitation  
Precipitation 0.00 in 0.01 in 0.10 in (1988)
Month to date precipitation T 0.19  
Year to date precipitation T 0.19  
Sea Level Pressure  
Sea Level Pressure 29.86 in    
Wind  
Wind Speed 15 mph (SSW)    
Max Wind Speed 31 mph    
Max Gust Speed 38 mph    
Visibility 10 miles    
Events      
T = Trace of Precipitation, MM = Missing Value Source: NWS Daily Summary

Daily Weather History Graph

Daily Weather History Graph

Search for Another Location

Airport:

Trip Planner

Search our weather history database for the weather conditions in past years. The results will help you decide how hot, cold, wet, or windy it might be!

Date:

Astronomy

Jan. 23, 2012 Rise Set
Actual Time 7:21 AM MST 5:07 PM MST
Civil Twilight 6:52 AM MST 5:37 PM MST
Nautical Twilight 6:18 AM MST 6:10 PM MST
Astronomical Twilight 5:45 AM MST 6:43 PM MST
Moon 7:18 AM MST (1/23) 5:58 PM MST (1/23)
Length of Visible Light 10h 45m
Length of Day
9h 45m
Waxing Crescent, 0% of the Moon is Illuminated
Jan 23
Waxing Crescent
Jan 30
First Quarter
Feb 7
Full
Feb 14
Last Quarter
Feb 21
New

Hourly Weather History & Observations

Time (MST) Temp. Windchill Dew Point Humidity Pressure Visibility Wind Dir Wind Speed Gust Speed Precip Events Conditions
12:53 AM 23.0 °F 8.3 °F 8.1 °F 53% 29.89 in 10.0 mi SW 19.6 mph 29.9 mph N/A   Clear
1:53 AM 21.9 °F 9.2 °F 8.1 °F 55% 29.94 in 10.0 mi SW 13.8 mph - N/A   Clear
2:53 AM 21.9 °F 7.3 °F 8.1 °F 55% 29.93 in 10.0 mi SSW 18.4 mph - N/A   Clear
3:53 AM 21.9 °F 6.5 °F 7.0 °F 53% 29.93 in 10.0 mi SSW 20.7 mph 27.6 mph N/A   Clear
4:53 AM 21.2 °F 5.2 °F 8.6 °F 58% 29.85 in 10.0 mi SW 21.9 mph 26.5 mph N/A   Clear
5:53 AM 21.2 °F 6.4 °F 8.6 °F 58% 29.86 in 10.0 mi South 18.4 mph 21.9 mph N/A   Clear
6:53 AM 21.0 °F 8.6 °F 7.0 °F 55% 29.95 in 10.0 mi SSW 12.7 mph - N/A   Clear
7:53 AM 24.1 °F 10.1 °F 8.1 °F 51% 29.93 in 10.0 mi WSW 18.4 mph - N/A   Clear
8:53 AM 27.0 °F 13.5 °F 9.0 °F 47% 29.94 in 10.0 mi SW 19.6 mph 28.8 mph N/A   Clear
9:53 AM 30.9 °F 21.7 °F 10.0 °F 42% 29.92 in 10.0 mi SW 11.5 mph 21.9 mph N/A   Clear
10:53 AM 33.1 °F 20.3 °F 12.0 °F 42% 29.87 in 10.0 mi SW 24.2 mph 32.2 mph N/A   Clear
11:53 AM 35.1 °F 24.5 °F 10.9 °F 37% 29.82 in 10.0 mi SSW 18.4 mph 26.5 mph N/A   Clear
12:53 PM 37.4 °F 26.4 °F 12.2 °F 36% 29.77 in 10.0 mi SW 23.0 mph 27.6 mph N/A   Clear
1:53 PM 37.9 °F 28.2 °F 10.0 °F 32% 29.78 in 10.0 mi SW 18.4 mph 27.6 mph N/A   Clear
2:53 PM 37.9 °F 28.9 °F 10.0 °F 32% 29.78 in 10.0 mi SW 16.1 mph - N/A   Clear
3:53 PM 37.0 °F 28.5 °F 10.9 °F 34% 29.78 in 10.0 mi SW 13.8 mph - N/A   Clear
4:53 PM 30.9 °F 22.2 °F 12.0 °F 46% 29.83 in 10.0 mi WSW 10.4 mph - N/A   Clear
5:53 PM 26.1 °F 20.5 °F 12.0 °F 55% 29.88 in 10.0 mi WSW 4.6 mph - N/A   Partly Cloudy
6:53 PM 26.1 °F 18.4 °F 12.0 °F 55% 29.88 in 10.0 mi SSW 6.9 mph - N/A   Clear
7:53 PM 23.0 °F 15.8 °F 10.9 °F 60% 29.86 in 10.0 mi SSE 5.8 mph - N/A   Clear
8:53 PM 24.1 °F 15.2 °F 12.0 °F 60% 29.83 in 10.0 mi South 8.1 mph - N/A   Clear
9:53 PM 25.0 °F 15.5 °F 12.9 °F 60% 29.80 in 10.0 mi South 9.2 mph - N/A   Clear
10:53 PM 25.0 °F 16.3 °F 14.0 °F 63% 29.80 in 10.0 mi South 8.1 mph - N/A   Overcast
11:53 PM 27.0 °F 20.5 °F 14.0 °F 58% 29.78 in 10.0 mi South 5.8 mph - N/A   Overcast